Location: Chassagnes
(44.4047°N, 4.1657°E)
Time: 12:36:33
(UTC+00:00)

Cosmos 1417 Rocket - Pass Details

Date: 27 October 2020
Orbit: 952 x 998 km, 83.0° (Epoch: 23 November)

Event Time Altitude Azimuth Distance (km) Brightness Sun altitude
Rises 18:16:51 0° 186° (S) 3,653 7.6 -18.0°
Reaches altitude 10° 18:19:20 10° 187° (S) 2,716 6.9 -18.4°
Maximum altitude 18:25:35 88° 273° (W) 991 4.5 -19.5°
Drops below altitude 10° 18:31:57 10° 8° (N) 2,764 6.8 -20.7°
Sets 18:34:30 0° 9° (N) 3,722 7.5 -21.1°
